Weather History for Douglas, WY

Change the Weather History Date:

Thursday, December 6, 2012

  Actual Average Record
Temperature  
Mean Temperature 35 °F 25 °F  
Max Temperature 46 °F 38 °F 57 °F (2003)
Min Temperature 23 °F 12 °F -13 °F (2013)
Degree Days  
Heating Degree Days 30 40  
Month to date heating degree days 129 237  
Since 1 July heating degree days 1676 2059  
Cooling Degree Days 0 0  
Month to date cooling degree days 0 0  
Year to date cooling degree days 831 486  
Moisture  
Dew Point 24 °F    
Average Humidity 61    
Maximum Humidity 78    
Minimum Humidity 44    
Precipitation  
Precipitation 0.00 in 0.02 in 0.13 in (2009)
Month to date precipitation T 0.09  
Year to date precipitation 5.26 13.08  
Sea Level Pressure  
Sea Level Pressure 29.92 in    
Wind  
Wind Speed 8 mph (East)    
Max Wind Speed 24 mph    
Max Gust Speed 31 mph    
Visibility 10 miles    
Events      
T = Trace of Precipitation, MM = Missing Value Source: NWS Daily Summary

Daily Weather History Graph

Daily Weather History Graph

Search for Another Location

Airport:

Trip Planner

Search our weather history database for the weather conditions in past years. The results will help you decide how hot, cold, wet, or windy it might be!

Date:

Astronomy

Dec. 06, 2012 Rise Set
Actual Time 7:18 AM MST 4:27 PM MST
Civil Twilight 6:46 AM MST 4:59 PM MST
Nautical Twilight 6:10 AM MST 5:34 PM MST
Astronomical Twilight 5:36 AM MST 6:09 PM MST
Moon No Moon Rise 12:03 PM MST (12/6)
Length of Visible Light 10h 13m
Length of Day
9h 09m
Waning Gibbous, 48% of the Moon is Illuminated
Dec 6
Waning Gibbous
Dec 13
New
Dec 19
First Quarter
Dec 28
Full
Jan 4
Last Quarter

Hourly Weather History & Observations

Time (MST) Temp. Windchill Dew Point Humidity Pressure Visibility Wind Dir Wind Speed Gust Speed Precip Events Conditions
12:53 AM 43.0 °F 33.8 °F 30.9 °F 62% 29.89 in 10.0 mi NNW 23.0 mph 31.1 mph N/A   Mostly Cloudy
1:08 AM 42.8 °F 34.5 °F 30.2 °F 61% 29.97 in 10.0 mi North 18.4 mph 26.5 mph N/A   Overcast
1:53 AM 39.0 °F 31.8 °F 28.9 °F 67% 29.93 in 10.0 mi NNE 11.5 mph - N/A   Mostly Cloudy
2:53 AM 37.9 °F 32.7 °F 24.1 °F 57% 29.94 in 10.0 mi North 6.9 mph - N/A   Mostly Cloudy
3:53 AM 37.0 °F 31.6 °F 25.0 °F 62% 29.97 in 10.0 mi North 6.9 mph - N/A   Overcast
4:53 AM 35.1 °F 28.6 °F 21.0 °F 57% 29.99 in 10.0 mi NE 8.1 mph - N/A   Overcast
5:53 AM 35.1 °F 32.2 °F 21.0 °F 57% 30.00 in 10.0 mi NE 3.5 mph - N/A   Overcast
6:53 AM 33.1 °F 28.7 °F 21.0 °F 61% 30.03 in 10.0 mi East 4.6 mph - N/A   Overcast
7:53 AM 33.1 °F 28.7 °F 21.0 °F 61% 30.03 in 10.0 mi East 4.6 mph - N/A   Overcast
8:53 AM 32.0 °F 24.8 °F 19.0 °F 59% 30.04 in 10.0 mi ESE 8.1 mph - N/A   Mostly Cloudy
9:53 AM 36.0 °F 29.0 °F 19.0 °F 50% 30.01 in 10.0 mi SE 9.2 mph - N/A   Clear
10:53 AM 39.0 °F 31.4 °F 19.0 °F 45% 29.96 in 10.0 mi SE 12.7 mph - N/A   Clear
11:53 AM 39.9 °F 32.5 °F 25.0 °F 55% 29.93 in 10.0 mi SE 12.7 mph - N/A   Clear
12:53 PM 41.0 °F 35.2 °F 28.0 °F 60% 29.91 in 10.0 mi SE 9.2 mph - N/A   Clear
1:53 PM 43.0 °F 37.2 °F 28.0 °F 56% 29.88 in 10.0 mi SE 10.4 mph - N/A   Clear
2:53 PM 44.1 °F 40.1 °F 26.1 °F 49% 29.87 in 10.0 mi SSE 6.9 mph - N/A   Clear
3:53 PM 41.0 °F 35.2 °F 27.0 °F 57% 29.87 in 10.0 mi SE 9.2 mph - N/A   Clear
4:53 PM 37.9 °F 30.9 °F 26.1 °F 62% 29.86 in 10.0 mi SE 10.4 mph - N/A   Clear
5:53 PM 36.0 °F 30.3 °F 25.0 °F 64% 29.86 in 10.0 mi SSE 6.9 mph - N/A   Clear
6:53 PM 34.0 °F 28.0 °F 25.0 °F 70% 29.88 in 10.0 mi SE 6.9 mph - N/A   Clear
7:53 PM 32.0 °F 25.6 °F 24.1 °F 73% 29.87 in 10.0 mi SE 6.9 mph - N/A   Clear
8:53 PM 28.9 °F - 23.0 °F 78% 29.87 in 10.0 mi Calm Calm - N/A   Clear
9:53 PM 30.0 °F - 24.1 °F 79% 29.85 in 10.0 mi Calm Calm - N/A   Clear
10:53 PM 28.0 °F - 21.0 °F 75% 29.82 in 10.0 mi Calm Calm - N/A   Clear
11:53 PM 25.0 °F 20.7 °F 19.0 °F 78% 29.81 in 10.0 mi East 3.5 mph - N/A   Clear